Location: Silverdale
(47.6506°N, 122.6941°W)
Time: 03:11:00
(UTC+00:00)

Altair - Pass Details

Date: 12 October 2022
Orbit: 1501 x 1682 km, 47.2° (Epoch: 05 December)

Event Time Altitude Azimuth Distance (km) Brightness Sun altitude
Rises 18:57:28 0° 286° (WNW) 4,901 9.9 33.2°
Reaches altitude 10° 19:03:06 10° 261° (W) 3,931 9.7 33.5°
Maximum altitude 19:06:57 13° 238° (WSW) 3,709 9.8 33.6°
Drops below altitude 10° 19:10:50 10° 215° (SW) 3,938 10.3 33.8°
Sets 19:16:33 0° 190° (S) 4,916 11.0 34.0°
